Retour au catalogue

STARLINK-31046

ActifCommunicationsVLEO
NORAD 58552·PAYLOAD·🇺🇸 United States

Lancé Dec 8, 2023 depuis Vandenberg Space Force Base

Loading…

Prochains Passages (prochaines 24 heures)

TLE

FraisSource: CelesTrak SupGP

Époque: Sep 15, 2026, 02:28 UTC

1 58552C 23192X   26258.10326389 -.00014782  00000+0 -43667-3 0  2587
2 58552  53.1586 259.1243 0001376  90.9059 107.2472 15.34403420    10

Suivez STARLINK-31046 en temps réel avec AllMySat

Download on the App Store